Showing default

OPS 9381 (GGTS), 2207

Orbit data source: Space-Track

OPS 9381 (GGTS), 2207 is a payload satellite owned by USAF SSD (US) in GEO that was launched on Thu, 16 Jun 1966 UTC via a TITAN IIIC launch vehicle from the Air Force Eastern Test Range (AFETR). Payload-class satellites include a variety of spacecraft equipped with specific instruments for various scientific and technological missions. These include communications satellites like Starlink; space stations such as the ISS; scientific satellites like the Hubble; Earth observation satellites from companies like Planet Labs, Umbra, and HawkEye 360; GPS; miniature CubeSats for education and research; and military/defense satellites.

Not visible in the next 10 days
Identifier
2207, 1966-053A
Orbit
GEO
Country
Flag of USUS
Related business
Manufacturer
GE/MSVD
Mission
Non-operational Defense Technology
Bus & Motor
GGTS, Unknown motor
Mass
47 kg wet, 47 kg dry
Launch date (UTC)
1966-06-16 (59 years ago)
Launch vehicle
TITAN IIIC
Launch site
Air Force Eastern Test Range (AFETR)
Object type
Payload
Rocket body
Debris
Shape & HBR
Poly + 2 Rod, 16.0 m
Radar Cross Section
0.926 m², Medium (>0.1 m² and < 1m²)

Expand to show TLE details & history
Last TLE update: 11 hours ago

TLE from 11 hours ago
0 OPS 9381 (GGTS)
1 02207U 66053A   25260.81726481 -.00000083  00000-0  00000-0 0  9995
2 02207   8.1460  45.9409 0028478 224.0626 161.3575  1.08009236233021
Epoch: 2025-09-17T19:36Z
TLE epoch observation values (Epoch: 2025-09-17T19:36:51.679Z)
Latitude
3.48566°
Longitude
140.02952°
Altitude
33,854.937 km
Speed
3.143 km/s
True Right ascension
04h 44m 55s
True Declination
3° 28' 55"
Sunlit
Object was in daylight at epoch
Visualization orbit readout
Latitude
Unknown
Longitude
Unknown
Altitude
Unknown
Speed
Unknown
Apparent Right ascension
Unknown
Apparent Declination
Unknown
Sunlit
N/A
Visualization observer readout
Local Sidereal Time
23:52:50
Azimuth
Unknown
Elevation
Unknown
Doppler factor
Unknown
Orbital elements
Apogee altitude
33,863.415 km
Perigee altitude
33,634.866 km
Semi-major axis
40,127.278 km
Eccentricity
0.00285
Inclination
8.146°
RAAN
45.9409°
Arg. of periapsis
224.0626°
True anomaly
161.46147°
Mean anomaly
161.3575°
Eccentric anomaly
161.40952°
Mean motion
0.27001 °/min
Orbital period
1,333.27 mins
BSTAR
0
Loading maneuver chart data...
Computing Atmospheric mass density...
Loading historical data...
Loading historical data...
Loading historical data...
Loading historical data...
Loading historical data...
Loading historical data...
Loading historical data...

Documentation

Showing up to 5 results
|